Regional Weather Roundup
Issued by NWS Cleveland, OH

Home | Current Version | Previous Version | Text Only | Print | Product List | Glossary On
Versions: 1 2 3 4 5 6 7 8 9 10 11 12 13 14 15 16 17 18 19 20 21 22 23 24 25 26 27 28 29 30 31 32 33 34 35 36 37 38 39 40 41 42 43 44 45 46 47 48 49 50
000
ASUS41 KCLE 301110
RWRCLE
OHIO REGIONAL WEATHER ROUNDUP
NATIONAL WEATHER SERVICE CLEVELAND, OH
700 AM EDT TUE JUN 30 2015

NOTE: "FAIR" INDICATES FEW OR NO CLOUDS BELOW 12,000 FEET WITH NO
SIGNIFICANT WEATHER AND/OR OBSTRUCTIONS TO VISIBILITY.

OHZ001>008-015>018-024>027-034-035-043-044-301200-
   NORTHWEST OHIO

CITY           SKY/WX    TMP DP  RH WIND       PRES   REMARKS
DEFIANCE       CLOUDY    63  60  90 CALM      29.81S FOG
FINDLAY        CLOUDY    63  61  93 S5        29.82R FOG
TOLEDO EXPRESS MOCLDY    60  59  96 S3        29.81R FOG
TOLEDO EXEC    CLOUDY    63  59  87 W6        29.82R
LIMA           CLOUDY    62  61  96 CALM      29.82S FOG
$$

OHZ009>014-019>023-028>033-038-089-301200-
   NORTHEAST OHIO

CITY           SKY/WX    TMP DP  RH WIND       PRES   REMARKS
CLE-HOPKINS    CLOUDY    63  61  93 SW6       29.82R
CLE-LAKEFRONT  MOCLDY    65  61  87 S7        29.79R
CUY CO. ARPT   MOCLDY    64  63  94 SW9       29.81
LORAIN-ELYRIA  CLOUDY    62  61  96 W7        29.82R FOG
ASHTABULA      MOSUNNY   61  60  97 S6        29.82S
AKRON-CANTON   CLOUDY    63  61  93 SW7       29.84R FOG
WOOSTER        CLOUDY    62  60  93 SW6       29.84R FOG
MANSFIELD      CLOUDY    61  61 100 CALM      29.83S
YOUNGSTOWN     CLOUDY    62  61  96 S6        29.84R FOG
$$

OHZ042-051>053-060>062-070>072-077>081-301200-
  SOUTHWEST OHIO

CITY           SKY/WX    TMP DP  RH WIND       PRES   REMARKS
CINC-COVINGTON PTCLDY    65  63  93 S6        29.86R FOG
CINC-LUNKEN    CLEAR     65  63  93 SE5       29.86R
HAMILTON       CLEAR     63  62  97 CALM      29.86R FOG
DAYTON         CLOUDY    65  64  97 SW7       29.85R FOG
WRIGHT-PAT AFB CLOUDY    65  65 100 SW6       29.85R FOG
DAYTON GENERAL CLOUDY    64  63  96 S6        29.84R FOG
WILMINGTON     CLOUDY    65  63  93 SW9       29.86R FOG
$$

OHZ036-037-039>041-045>050-054>059-063>069-073>076-082>088-301200-
  CENTRAL AND SOUTHEAST OHIO

CITY           SKY/WX    TMP DP  RH WIND       PRES   REMARKS
COLUMBUS       CLOUDY    64  64 100 CALM      29.83S FOG
OSU AIRPORT    CLOUDY    64  63  96 S3        29.84R FOG
BOLTON FIELD   FOG       64  64 100 CALM      29.85R VSB 1/4
RICKENBACK AFB CLOUDY    64  64 100 S6        29.84R FOG
NEWARK         FOG       65  64  97 CALM      29.84S VSB 1
MARION         CLOUDY    61  59  93 S5        29.84S FOG
LANCASTER      CLOUDY    66  64  93 S5        29.85S FOG
ZANESVILLE     NOT AVBL
NEW PHILLY     CLOUDY    64  62  93 CALM      29.85R
$$



USA.gov is the U.S. government's official web portal to all federal, state and local government web resources and services.